timestamp,wind_dir_avg,wind_spd_avg,wind_spd_max_dir,wind_spd_gust,battery_voltage,lat,long
2023-11-21 00:04:01+00:00,299.0,3.0,294.0,3.54,12.41,47.59359,-54.27349
2023-11-21 00:14:00+00:00,356.0,1.1,0.0,1.41,12.41,47.59359,-54.27349
2023-11-21 00:24:00+00:00,313.0,0.89,305.0,1.37,12.41,47.59359,-54.27349
2023-11-21 00:34:00+00:00,332.0,0.46,330.0,0.61,12.41,47.59359,-54.27349
2023-11-21 00:44:00+00:00,0.0,0.71,5.0,0.95,12.41,47.59359,-54.27349
2023-11-21 00:54:00+00:00,17.0,0.95,16.0,1.26,12.41,47.59359,-54.27349
2023-11-21 01:04:00+00:00,355.0,2.08,356.0,2.63,12.41,47.59359,-54.27349
2023-11-21 01:14:00+00:00,345.0,2.55,346.0,3.0,12.41,47.59359,-54.27349
2023-11-21 01:24:00+00:00,324.0,3.18,327.0,3.72,12.41,47.59359,-54.27349
2023-11-21 01:34:00+00:00,332.0,2.68,327.0,3.02,12.41,47.59359,-54.27349
2023-11-21 01:44:00+00:00,332.0,2.49,324.0,3.02,12.41,47.59359,-54.27349
2023-11-21 01:54:00+00:00,323.0,4.62,323.0,5.03,12.41,47.59359,-54.27349
2023-11-21 02:04:00+00:00,326.0,4.94,325.0,5.39,12.41,47.59359,-54.27349
2023-11-21 02:14:00+00:00,321.0,4.65,315.0,5.5,12.33,47.59359,-54.27349
2023-11-21 02:24:00+00:00,321.0,4.75,319.0,5.37,12.33,47.59359,-54.27349
2023-11-21 02:34:00+00:00,335.0,5.25,333.0,5.79,12.33,47.59359,-54.27349
2023-11-21 02:44:00+00:00,333.0,6.8,330.0,7.56,12.33,47.59359,-54.27349
2023-11-21 02:54:00+00:00,346.0,5.49,350.0,7.38,12.33,47.59359,-54.27349
2023-11-21 03:04:00+00:00,353.0,5.18,357.0,5.77,12.33,47.59359,-54.27349
2023-11-21 03:14:00+00:00,4.0,5.56,5.0,6.38,12.33,47.59359,-54.27349
2023-11-21 03:24:00+00:00,5.0,5.61,6.0,6.58,12.33,47.59359,-54.27349
2023-11-21 03:34:00+00:00,5.0,6.39,2.0,7.38,12.33,47.59359,-54.27349
2023-11-21 03:44:00+00:00,2.0,7.32,3.0,8.04,12.33,47.59359,-54.27349
2023-11-21 03:54:00+00:00,2.0,7.49,358.0,8.63,12.33,47.59359,-54.27349
2023-11-21 04:04:00+00:00,3.0,7.13,5.0,8.28,12.33,47.59359,-54.27349
2023-11-21 04:14:00+00:00,5.0,6.37,355.0,7.82,12.33,47.59359,-54.27349
2023-11-21 04:24:00+00:00,6.0,5.73,7.0,6.98,12.33,47.59359,-54.27349
2023-11-21 04:34:00+00:00,5.0,5.95,5.0,6.76,12.33,47.59359,-54.27349
2023-11-21 04:44:00+00:00,6.0,6.27,13.0,7.37,12.33,47.59359,-54.27349
2023-11-21 04:54:00+00:00,4.0,5.72,357.0,6.41,12.33,47.59359,-54.27349
2023-11-21 05:04:00+00:00,5.0,5.3,3.0,6.03,12.33,47.59359,-54.27349
2023-11-21 05:14:00+00:00,5.0,5.65,2.0,6.52,12.25,47.59359,-54.27349
2023-11-21 05:24:00+00:00,4.0,5.84,24.0,6.6,12.25,47.59359,-54.27349
2023-11-21 05:34:00+00:00,19.0,6.32,31.0,7.75,12.25,47.59359,-54.27349
2023-11-21 05:44:00+00:00,24.0,7.27,26.0,8.04,12.25,47.59359,-54.27349
2023-11-21 05:54:00+00:00,16.0,7.4,13.0,8.46,12.25,47.59359,-54.27349
2023-11-21 06:04:00+00:00,0.0,5.9,357.0,6.52,12.25,47.59359,-54.27349
2023-11-21 06:14:00+00:00,0.0,6.11,5.0,7.4,12.25,47.59359,-54.27349
2023-11-21 06:24:00+00:00,354.0,6.82,352.0,7.68,12.25,47.59359,-54.27349
2023-11-21 06:34:00+00:00,356.0,6.57,355.0,7.41,12.25,47.59359,-54.27349
2023-11-21 06:44:00+00:00,357.0,6.59,352.0,8.0,12.25,47.59359,-54.27349
2023-11-21 06:54:00+00:00,8.0,6.61,1.0,7.54,12.25,47.59359,-54.27349
2023-11-21 07:04:00+00:00,7.0,7.46,359.0,9.25,12.25,47.59359,-54.27349
2023-11-21 07:14:00+00:00,0.0,7.84,3.0,8.87,12.25,47.59359,-54.27349
2023-11-21 07:24:00+00:00,18.0,7.26,17.0,8.74,12.25,47.59359,-54.27349
2023-11-21 07:34:00+00:00,6.0,7.33,1.0,9.61,12.25,47.59359,-54.27349
2023-11-21 07:44:00+00:00,5.0,7.71,355.0,9.56,12.25,47.59359,-54.27349
2023-11-21 07:54:00+00:00,21.0,7.52,17.0,9.11,12.25,47.59359,-54.27349
2023-11-21 08:04:00+00:00,16.0,7.3,17.0,8.98,12.25,47.59359,-54.27349
2023-11-21 08:14:00+00:00,10.0,7.25,8.0,8.83,12.25,47.59359,-54.27349
2023-11-21 08:24:00+00:00,8.0,7.3,1.0,8.45,12.25,47.59359,-54.27349
2023-11-21 08:34:00+00:00,15.0,8.18,17.0,10.02,12.25,47.59359,-54.27349
2023-11-21 08:44:00+00:00,20.0,8.07,17.0,9.5,12.25,47.59359,-54.27349
2023-11-21 08:54:00+00:00,24.0,8.05,30.0,9.19,12.25,47.59359,-54.27349
2023-11-21 09:04:00+00:00,19.0,7.36,32.0,8.65,12.25,47.59359,-54.27349
2023-11-21 09:14:00+00:00,24.0,8.43,18.0,9.35,12.17,47.59359,-54.27349
2023-11-21 09:24:00+00:00,5.0,7.38,11.0,8.72,12.17,47.59359,-54.27349
2023-11-21 09:34:00+00:00,14.0,7.69,20.0,9.59,12.17,47.59359,-54.27349
2023-11-21 09:44:00+00:00,10.0,7.07,8.0,8.43,12.17,47.59359,-54.27349
2023-11-21 09:54:00+00:00,12.0,6.11,6.0,7.01,12.17,47.59359,-54.27349
2023-11-21 10:04:00+00:00,12.0,6.28,15.0,7.33,12.17,47.59359,-54.27349
2023-11-21 10:14:00+00:00,14.0,6.09,5.0,7.17,12.17,47.59359,-54.27349
2023-11-21 10:24:00+00:00,20.0,7.22,10.0,8.94,12.17,47.59359,-54.27349
2023-11-21 10:34:00+00:00,24.0,6.81,23.0,8.08,12.17,47.59359,-54.27349
2023-11-21 10:44:00+00:00,23.0,6.63,18.0,7.43,12.17,47.59359,-54.27349
2023-11-21 10:54:00+00:00,27.0,6.44,20.0,7.28,12.17,47.59359,-54.27349
2023-11-21 11:04:00+00:00,32.0,7.39,31.0,8.32,12.17,47.59359,-54.27349
2023-11-21 11:14:00+00:00,25.0,7.58,26.0,8.37,12.17,47.59359,-54.27349
2023-11-21 11:24:00+00:00,23.0,7.54,21.0,8.65,12.17,47.59359,-54.27349
2023-11-21 11:34:00+00:00,24.0,7.46,24.0,8.37,12.17,47.59359,-54.27349
2023-11-21 11:44:00+00:00,20.0,6.48,19.0,7.26,12.17,47.59359,-54.27349
2023-11-21 11:54:00+00:00,20.0,7.17,19.0,8.18,12.17,47.59359,-54.27349
2023-11-21 12:04:00+00:00,18.0,7.56,23.0,8.68,12.17,47.59359,-54.27349
2023-11-21 12:14:01+00:00,28.0,8.39,28.0,9.27,14.4,47.59359,-54.27349
2023-11-21 12:24:01+00:00,27.0,7.93,32.0,10.63,14.4,47.59359,-54.27349
2023-11-21 12:34:01+00:00,27.0,8.7,28.0,9.98,14.4,47.59359,-54.27349
2023-11-21 12:44:01+00:00,28.0,8.24,24.0,9.23,14.4,47.59359,-54.27349
2023-11-21 12:54:01+00:00,23.0,6.72,14.0,8.05,14.4,47.59359,-54.27349
2023-11-21 13:04:01+00:00,29.0,7.35,35.0,9.57,14.4,47.59359,-54.27349
2023-11-21 13:14:01+00:00,37.0,7.97,36.0,8.84,13.84,47.59359,-54.27349
2023-11-21 13:24:01+00:00,32.0,8.3,32.0,9.48,13.84,47.59359,-54.27349
2023-11-21 13:34:01+00:00,30.0,8.69,33.0,9.36,13.84,47.59359,-54.27349
2023-11-21 13:44:01+00:00,31.0,7.75,35.0,8.56,13.84,47.59359,-54.27349
2023-11-21 13:54:01+00:00,27.0,6.8,25.0,7.69,13.84,47.59359,-54.27349
2023-11-21 14:04:01+00:00,29.0,6.31,30.0,7.35,13.84,47.59359,-54.27349
2023-11-21 14:14:00+00:00,44.0,4.82,41.0,6.22,13.84,47.59359,-54.27349
2023-11-21 14:24:00+00:00,9.0,5.12,2.0,6.34,13.84,47.59359,-54.27349
2023-11-21 14:34:00+00:00,34.0,6.16,24.0,8.21,13.84,47.59359,-54.27349
2023-11-21 14:44:00+00:00,35.0,5.63,29.0,6.31,13.84,47.59359,-54.27349
2023-11-21 14:54:00+00:00,21.0,6.71,16.0,8.77,13.84,47.59359,-54.27349
2023-11-21 15:04:00+00:00,36.0,5.85,23.0,8.0,13.84,47.59359,-54.27349
2023-11-21 15:14:00+00:00,18.0,5.49,15.0,6.21,13.92,47.59359,-54.27349
2023-11-21 15:24:00+00:00,43.0,3.55,37.0,4.23,13.92,47.59359,-54.27349
2023-11-21 15:34:00+00:00,39.0,4.74,24.0,6.34,13.92,47.59359,-54.27349
2023-11-21 15:44:00+00:00,20.0,5.46,24.0,6.29,13.92,47.59359,-54.27349
2023-11-21 15:54:00+00:00,28.0,5.43,30.0,6.33,13.92,47.59359,-54.27349
2023-11-21 16:04:00+00:00,25.0,4.56,16.0,5.26,13.92,47.59359,-54.27349
2023-11-21 16:14:00+00:00,20.0,5.88,19.0,6.93,14.48,47.59359,-54.27349
2023-11-21 16:24:00+00:00,33.0,5.34,35.0,6.39,14.48,47.59359,-54.27349
2023-11-21 16:34:00+00:00,39.0,5.37,33.0,6.25,14.48,47.59359,-54.27349
2023-11-21 16:44:00+00:00,18.0,4.9,26.0,6.11,14.48,47.59359,-54.27349
2023-11-21 16:54:00+00:00,20.0,4.06,21.0,4.79,14.48,47.59359,-54.27349
2023-11-21 17:04:00+00:00,16.0,4.56,6.0,5.87,14.48,47.59359,-54.27349
2023-11-21 17:14:00+00:00,16.0,4.79,27.0,5.7,14.4,47.59359,-54.27349
2023-11-21 17:24:00+00:00,6.0,5.27,7.0,5.87,14.4,47.59359,-54.27349
2023-11-21 17:34:00+00:00,15.0,5.23,12.0,6.18,14.4,47.59359,-54.27349
2023-11-21 17:44:00+00:00,0.0,4.87,346.0,6.33,14.4,47.59359,-54.27349
2023-11-21 17:54:00+00:00,348.0,6.2,352.0,6.95,14.4,47.59359,-54.27349
2023-11-21 18:04:00+00:00,1.0,6.03,12.0,7.66,14.4,47.59359,-54.27349
2023-11-21 18:14:00+00:00,353.0,6.31,354.0,7.53,13.76,47.59359,-54.27349
2023-11-21 18:24:00+00:00,357.0,6.23,353.0,8.02,13.76,47.59359,-54.27349
2023-11-21 18:34:00+00:00,350.0,6.55,350.0,7.83,13.76,47.59359,-54.27349
2023-11-21 18:44:00+00:00,353.0,6.33,353.0,7.06,13.76,47.59359,-54.27349
2023-11-21 18:54:00+00:00,6.0,5.3,13.0,6.47,13.76,47.59359,-54.27349
2023-11-21 19:04:00+00:00,355.0,5.73,356.0,6.59,13.76,47.59359,-54.27349
2023-11-21 19:14:01+00:00,19.0,3.95,21.0,4.94,13.68,47.59359,-54.27349
2023-11-21 19:24:01+00:00,14.0,5.18,12.0,5.93,13.68,47.59359,-54.27349
2023-11-21 19:34:01+00:00,12.0,5.97,3.0,7.91,13.68,47.59359,-54.27349
2023-11-21 19:44:01+00:00,359.0,5.56,358.0,6.72,13.68,47.59359,-54.27349
2023-11-21 19:54:01+00:00,10.0,5.57,2.0,6.64,13.68,47.59359,-54.27349
2023-11-21 20:04:01+00:00,9.0,5.8,0.0,6.73,13.68,47.59359,-54.27349
2023-11-21 20:14:01+00:00,8.0,5.5,8.0,6.51,12.81,47.59359,-54.27349
2023-11-21 20:24:01+00:00,8.0,5.76,9.0,6.58,12.81,47.59359,-54.27349
2023-11-21 20:34:01+00:00,0.0,7.02,7.0,7.91,12.81,47.59359,-54.27349
2023-11-21 20:44:01+00:00,2.0,7.0,0.0,8.17,12.81,47.59359,-54.27349
2023-11-21 20:54:01+00:00,351.0,5.58,348.0,6.32,12.81,47.59359,-54.27349
2023-11-21 21:04:01+00:00,0.0,6.02,356.0,6.77,12.81,47.59359,-54.27349
2023-11-21 21:14:00+00:00,0.0,5.92,354.0,7.3,12.49,47.59359,-54.27349
2023-11-21 21:24:00+00:00,0.0,6.06,3.0,6.78,12.49,47.59359,-54.27349
2023-11-21 21:34:00+00:00,355.0,6.07,3.0,6.78,12.49,47.59359,-54.27349
2023-11-21 21:44:00+00:00,3.0,6.68,5.0,8.18,12.49,47.59359,-54.27349
2023-11-21 21:54:00+00:00,5.0,6.0,6.0,6.7,12.49,47.59359,-54.27349
2023-11-21 22:04:00+00:00,358.0,6.45,355.0,7.75,12.49,47.59359,-54.27349
2023-11-21 22:14:01+00:00,355.0,6.19,346.0,7.25,12.41,47.59359,-54.27349
2023-11-21 22:24:01+00:00,2.0,5.67,3.0,6.28,12.41,47.59359,-54.27349
2023-11-21 22:34:01+00:00,351.0,5.84,349.0,6.49,12.41,47.59359,-54.27349
2023-11-21 22:44:01+00:00,4.0,5.66,10.0,6.37,12.41,47.59359,-54.27349
2023-11-21 22:54:01+00:00,4.0,5.66,2.0,6.28,12.41,47.59359,-54.27349
2023-11-21 23:04:01+00:00,1.0,5.32,7.0,6.16,12.41,47.59359,-54.27349
2023-11-21 23:14:00+00:00,3.0,4.92,356.0,5.7,12.41,47.59359,-54.27349
2023-11-21 23:24:00+00:00,354.0,5.91,355.0,6.55,12.41,47.59359,-54.27349
2023-11-21 23:34:00+00:00,347.0,6.75,344.0,7.86,12.41,47.59359,-54.27349
2023-11-21 23:44:00+00:00,349.0,7.19,350.0,8.47,12.41,47.59359,-54.27349
2023-11-21 23:54:00+00:00,355.0,7.72,359.0,8.88,12.41,47.59359,-54.27349
